User: anonymous   Login
Location: Azul
(36.7830°S, 59.8500°W)
Time: 10:56:48
(UTC-03:00)
Language:

JUGNU - Orbit

View from above orbital plane
View from above orbital plane
View from above satellite
View from above satellite

Ground track
Ground track

The orbit data is extracted from the following two-line orbital elements,

1 37839U 11058B   21295.04482446  .00000347  00000-0  42920-4 0  9991
2 37839  19.9598 181.4453 0018906  48.5437  86.1350 14.12730145518492
Epoch (UTC): 22 October 2021 01:04:32
Eccentricity: 0.0018906
inclination: 19.9598°
perigee height: 836 km
apogee height: 864 km
right ascension of ascending node: 181.4453°
argument of perigee: 48.5437°
revolutions per day: 14.12730145
mean anomaly at epoch: 86.1350°
orbit number at epoch: 51849

The dashed part of the orbit path shows where the satellite is in the earth's shadow,  

DLR